20040407,000007,1295997,33.246270,-124.232850,NaN,15.457,32.806,40.927,801.57,0.0, NaN,14.163,14.128, NaN,24.181,   NaN,12.92,1021.16,71.27,12.73,359.2,358.8,11.7,14.1,333.2,331.8,7.3,9.4,NaN, NaN,NaN,337.2,NaN,1081296008,NaN,NaN,8.4,000007,   NaN,332.2,33.246160,-124.232840,-0.10,NaN,NaN,15.461, NaN,NaN,NaN, NaN, NaN
20040407,000037,1296027,33.247350,-124.233590,NaN,15.459,32.806,40.929,810.31,0.0, NaN,14.163,14.130, NaN,24.181,   NaN,12.91,1021.17,70.88,12.73,3.3,0.5,11.6,13.7,338.1,334.3,7.5,9.1,NaN, NaN,NaN,330.2,NaN,1081296038,NaN,NaN,10.8,000037,   NaN,332.4,33.247250,-124.233570,-0.07,NaN,NaN,15.463, NaN,NaN,NaN, NaN, NaN
20040407,000107,1296057,33.248430,-124.234280,NaN,15.464,32.806,40.933,831.92,0.0, NaN,14.163,14.130, NaN,24.180,   NaN,12.90,1021.11,70.49,12.70,359.0,359.3,11.7,14.2,332.7,332.8,7.7,9.6,NaN, NaN,NaN,329.5,NaN,1081296068,NaN,NaN,11.2,000067,   NaN,332.6,33.248330,-124.234270,0.04,NaN,NaN,15.468, NaN,NaN,NaN, NaN, NaN
20040407,000137,1296087,33.249500,-124.235010,NaN,15.466,32.806,40.935,825.21,0.0, NaN,14.163,14.130, NaN,24.180,   NaN,12.90,1021.15,70.44,12.70,357.0,359.0,12.0,14.5,330.7,332.3,7.9,10.0,NaN, NaN,NaN,328.0,NaN,1081296098,NaN,NaN,8.8,000097,   NaN,332.6,33.249400,-124.234990,0.08,NaN,NaN,15.470, NaN,NaN,NaN, NaN, NaN
20040407,000207,1296116,33.250640,-124.235750,NaN,15.464,32.806,40.934,825.76,0.0, NaN,14.163,14.130, NaN,24.180,   NaN,12.89,1021.15,69.88,12.67,1.3,0.8,12.4,14.7,335.9,334.8,7.8,10.1,NaN, NaN,NaN,331.8,NaN,1081296128,NaN,NaN,8.6,000127,   NaN,332.9,33.250540,-124.235730,0.15,NaN,NaN,15.468, NaN,NaN,NaN, NaN, NaN
20040407,000237,1296147,33.251770,-124.236510,NaN,15.460,32.807,40.930,878.90,0.0, NaN,14.164,14.130, NaN,24.181,   NaN,12.85,1021.14,69.18,12.63,1.8,1.2,12.5,14.8,336.8,335.5,8.2,10.0,NaN, NaN,NaN,339.6,NaN,1081296158,NaN,NaN,8.0,000157,   NaN,332.2,33.251670,-124.236480,0.13,NaN,NaN,15.464, NaN,NaN,NaN, NaN, NaN
20040407,000307,1296177,33.252900,-124.237260,NaN,15.461,32.806,40.931,907.56,0.0, NaN,14.163,14.130, NaN,24.181,   NaN,12.87,1021.21,69.13,12.64,2.5,1.1,12.3,14.6,337.8,335.1,8.0,9.9,NaN, NaN,NaN,335.1,NaN,1081296188,NaN,NaN,9.1,000187,   NaN,332.6,33.252800,-124.237240,0.05,NaN,NaN,15.465, NaN,NaN,NaN, NaN, NaN
20040407,000337,1296207,33.254050,-124.238000,NaN,15.465,32.806,40.934,834.34,0.0, NaN,14.163,14.130, NaN,24.180,   NaN,12.87,1021.27,69.68,12.66,1.2,0.6,11.9,13.9,335.6,334.1,7.1,9.1,NaN, NaN,NaN,329.3,NaN,1081296218,NaN,NaN,8.5,000217,   NaN,332.6,33.253950,-124.237980,-0.09,NaN,NaN,15.469, NaN,NaN,NaN, NaN, NaN
20040407,000407,1296237,33.255190,-124.238750,NaN,15.467,32.806,40.937,825.32,0.0, NaN,14.163,14.130, NaN,24.179,   NaN,13.02,1021.23,71.69,12.80,355.8,358.1,11.1,13.1,329.1,330.5,6.8,8.3,NaN, NaN,NaN,334.2,NaN,1081296248,NaN,NaN,6.6,000247,   NaN,330.8,33.255080,-124.238730,-0.05,NaN,NaN,15.471, NaN,NaN,NaN, NaN, NaN
20040407,000437,1296267,33.256300,-124.239490,NaN,15.470,32.805,40.938,814.72,0.0, NaN,14.163,14.129, NaN,24.177,   NaN,13.05,1021.20,71.91,12.81,355.7,356.4,10.7,12.9,327.8,328.1,6.6,8.2,NaN, NaN,NaN,332.2,NaN,1081296278,NaN,NaN,8.4,000277,   NaN,332.8,33.256200,-124.239470,0.19,NaN,NaN,15.474, NaN,NaN,NaN, NaN, NaN
20040407,000507,1296297,33.257430,-124.240190,NaN,15.472,32.805,40.939,811.17,0.0, NaN,14.163,14.127, NaN,24.178,   NaN,13.08,1021.18,72.62,12.82,356.0,355.9,11.1,13.4,328.2,327.5,7.1,8.7,NaN, NaN,NaN,335.6,NaN,1081296308,NaN,NaN,8.8,000307,   NaN,333.0,33.257340,-124.240170,0.22,NaN,NaN,15.476, NaN,NaN,NaN, NaN, NaN
20040407,000537,1296327,33.258570,-124.240930,NaN,15.469,32.806,40.937,796.24,0.0, NaN,14.160,14.124, NaN,24.179,   NaN,13.06,1021.15,71.52,12.82,359.9,358.3,12.1,14.3,333.2,330.7,7.8,9.6,NaN, NaN,NaN,324.4,NaN,1081296338,NaN,NaN,9.3,000337,   NaN,332.8,33.258470,-124.240910,0.11,NaN,NaN,15.473, NaN,NaN,NaN, NaN, NaN
20040407,000607,1296357,33.259740,-124.241670,NaN,15.468,32.805,40.936,771.00,0.0, NaN,14.158,14.123, NaN,24.178,   NaN,12.92,1021.16,69.50,12.73,3.1,0.7,12.8,15.0,337.7,334.5,8.2,10.2,NaN, NaN,NaN,327.9,NaN,1081296368,NaN,NaN,8.1,000367,   NaN,332.4,33.259630,-124.241650,0.16,NaN,NaN,15.472, NaN,NaN,NaN, NaN, NaN
20040407,000637,1296387,33.260860,-124.242420,NaN,15.464,32.805,40.933,755.80,0.0, NaN,14.155,14.123, NaN,24.179,   NaN,12.95,1021.12,69.83,12.75,4.1,3.7,13.0,14.7,339.9,339.0,8.3,9.9,NaN, NaN,NaN,337.9,NaN,1081296398,NaN,NaN,9.3,000397,   NaN,332.2,33.260770,-124.242410,0.07,NaN,NaN,15.468, NaN,NaN,NaN, NaN, NaN
20040407,000707,1296417,33.262020,-124.243170,NaN,15.468,32.805,40.935,742.36,0.0, NaN,14.155,14.122, NaN,24.178,   NaN,12.95,1021.19,69.62,12.75,7.2,5.8,13.1,14.0,344.0,342.3,8.6,9.2,NaN, NaN,NaN,330.1,NaN,1081296428,NaN,NaN,9.3,000427,   NaN,331.9,33.261920,-124.243160,0.02,NaN,NaN,15.472, NaN,NaN,NaN, NaN, NaN
20040407,000737,1296446,33.263140,-124.243930,NaN,15.473,32.804,40.940,718.37,0.0, NaN,14.154,14.120, NaN,24.176,   NaN,13.02,1021.19,70.40,12.80,5.3,4.5,12.6,13.8,341.5,340.5,8.1,9.0,NaN, NaN,NaN,330.1,NaN,1081296458,NaN,NaN,9.0,000457,   NaN,332.8,33.263040,-124.243920,-0.09,NaN,NaN,15.477, NaN,NaN,NaN, NaN, NaN
20040407,000807,1296477,33.264290,-124.244670,NaN,15.480,32.803,40.944,688.53,0.0, NaN,14.153,14.119, NaN,24.174,   NaN,12.95,1021.19,69.27,12.73,4.4,3.8,12.6,13.8,340.2,339.3,8.1,9.0,NaN, NaN,NaN,325.2,NaN,1081296488,NaN,NaN,9.8,000487,   NaN,333.1,33.264200,-124.244660,0.14,NaN,NaN,15.484, NaN,NaN,NaN, NaN, NaN
20040407,000837,1296507,33.265410,-124.245410,NaN,15.476,32.802,40.940,664.76,0.0, NaN,14.153,14.119, NaN,24.174,   NaN,12.98,1021.19,70.12,12.78,5.3,5.6,12.4,13.2,342.3,342.3,7.7,8.5,NaN, NaN,NaN,326.8,NaN,1081296518,NaN,NaN,9.7,000517,   NaN,332.6,33.265310,-124.245390,-0.03,NaN,NaN,15.480, NaN,NaN,NaN, NaN, NaN
20040407,000907,1296537,33.266500,-124.246130,NaN,15.474,32.802,40.938,654.03,0.0, NaN,14.152,14.118, NaN,24.175,   NaN,13.00,1021.21,70.23,12.81,6.6,5.9,12.2,12.9,344.4,342.9,7.6,8.3,NaN, NaN,NaN,335.6,NaN,1081296548,NaN,NaN,7.2,000547,   NaN,332.1,33.266370,-124.246090,0.00,NaN,NaN,15.478, NaN,NaN,NaN, NaN, NaN
20040407,000937,1296567,33.267620,-124.246840,NaN,15.474,32.800,40.936,653.81,0.0, NaN,14.152,14.118, NaN,24.173,   NaN,13.05,1021.23,70.98,12.82,5.6,4.8,12.1,13.1,342.7,341.2,7.6,8.5,NaN, NaN,NaN,329.7,NaN,1081296578,NaN,NaN,9.0,000577,   NaN,333.8,33.267520,-124.246830,0.04,NaN,NaN,15.478, NaN,NaN,NaN, NaN, NaN
20040407,001007,1296597,33.268740,-124.247570,NaN,15.470,32.801,40.934,655.63,0.0, NaN,14.152,14.117, NaN,24.175,   NaN,13.08,1021.25,71.51,12.85,4.8,1.2,11.4,13.2,340.5,335.6,7.3,8.6,NaN, NaN,NaN,337.7,NaN,1081296608,NaN,NaN,7.0,000607,   NaN,332.7,33.268640,-124.247550,0.04,NaN,NaN,15.474, NaN,NaN,NaN, NaN, NaN
20040407,001037,1296627,33.269830,-124.248310,NaN,15.471,32.801,40.934,654.96,0.0, NaN,14.151,14.116, NaN,24.174,   NaN,13.07,1021.14,71.64,12.84,0.2,357.7,11.1,13.4,332.6,329.9,6.9,8.7,NaN, NaN,NaN,328.9,NaN,1081296638,NaN,NaN,9.8,000637,   NaN,333.7,33.269740,-124.248300,-0.01,NaN,NaN,15.475, NaN,NaN,NaN, NaN, NaN
20040407,001107,1296657,33.270940,-124.249030,NaN,15.472,32.800,40.935,649.01,0.0, NaN,14.149,14.115, NaN,24.174,   NaN,13.09,1021.23,72.29,12.86,357.8,356.9,11.1,13.2,330.5,328.9,6.4,8.6,NaN, NaN,NaN,340.0,NaN,1081296668,NaN,NaN,7.5,000667,   NaN,332.7,33.270840,-124.249010,0.05,NaN,NaN,15.476, NaN,NaN,NaN, NaN, NaN
20040407,001137,1296687,33.272050,-124.249750,NaN,15.474,32.800,40.935,639.16,0.0, NaN,14.148,14.115, NaN,24.173,   NaN,13.05,1021.25,71.75,12.86,359.5,356.9,11.2,13.3,333.0,329.0,6.6,8.7,NaN, NaN,NaN,328.3,NaN,1081296698,NaN,NaN,9.1,000697,   NaN,333.2,33.271950,-124.249730,-0.08,NaN,NaN,15.478, NaN,NaN,NaN, NaN, NaN
20040407,001207,1296717,33.273200,-124.250490,NaN,15.470,32.799,40.931,624.56,0.0, NaN,14.146,14.113, NaN,24.173,   NaN,13.01,1021.22,71.37,12.83,1.9,359.0,11.6,14.0,336.6,331.9,7.4,9.3,NaN, NaN,NaN,331.8,NaN,1081296728,NaN,NaN,8.3,000727,   NaN,332.7,33.273100,-124.250480,0.10,NaN,NaN,15.474, NaN,NaN,NaN, NaN, NaN
20040407,001237,1296747,33.274360,-124.251240,NaN,15.464,32.799,40.926,603.24,0.0, NaN,14.146,14.112, NaN,24.175,   NaN,13.00,1021.22,72.30,12.82,0.3,358.3,11.5,14.0,334.1,330.8,7.2,9.2,NaN, NaN,NaN,324.0,NaN,1081296758,NaN,NaN,10.5,000757,   NaN,332.9,33.274260,-124.251230,-0.12,NaN,NaN,15.468, NaN,NaN,NaN, NaN, NaN
20040407,001307,1296776,33.275490,-124.251990,NaN,15.462,32.799,40.924,579.84,0.0, NaN,14.145,14.110, NaN,24.175,   NaN,13.15,1021.23,73.85,12.89,3.2,0.4,11.5,13.3,337.7,333.9,6.8,8.5,NaN, NaN,NaN,330.8,NaN,1081296788,NaN,NaN,10.4,000787,   NaN,333.2,33.275350,-124.251950,0.01,NaN,NaN,15.466, NaN,NaN,NaN, NaN, NaN
20040407,001337,1296807,33.276650,-124.252720,NaN,15.462,32.800,40.925,557.70,0.0, NaN,14.143,14.109, NaN,24.175,   NaN,13.06,1021.18,72.12,12.84,3.7,2.4,12.1,13.5,339.8,337.1,7.3,8.7,NaN, NaN,NaN,326.2,NaN,1081296818,NaN,NaN,8.7,000817,   NaN,332.2,33.276540,-124.252710,0.10,NaN,NaN,15.466, NaN,NaN,NaN, NaN, NaN
20040407,001406,1296836,33.277780,-124.253500,NaN,15.463,32.800,40.926,539.72,0.0, NaN,14.142,14.108, NaN,24.175,   NaN,12.93,1021.23,71.17,12.77,2.4,1.8,12.1,14.0,337.8,336.2,7.3,9.2,NaN, NaN,NaN,329.0,NaN,1081296847,NaN,NaN,10.3,000847,   NaN,332.9,33.277630,-124.253450,-0.18,NaN,NaN,15.467, NaN,NaN,NaN, NaN, NaN
20040407,001437,1296867,33.278880,-124.254210,NaN,15.462,32.800,40.925,526.35,0.0, NaN,14.138,14.106, NaN,24.175,   NaN,12.97,1021.20,72.02,12.79,0.6,0.3,11.4,13.6,335.2,334.1,6.7,8.9,NaN, NaN,NaN,340.2,NaN,1081296878,NaN,NaN,8.7,000877,   NaN,332.9,33.278780,-124.254190,-0.09,NaN,NaN,15.466, NaN,NaN,NaN, NaN, NaN
20040407,001506,1296896,33.280030,-124.254930,NaN,15.459,32.800,40.922,520.19,0.0, NaN,14.137,14.103, NaN,24.176,   NaN,13.07,1021.12,73.10,12.87,1.5,359.1,11.2,13.5,336.4,332.5,6.5,8.7,NaN, NaN,NaN,335.7,NaN,1081296907,NaN,NaN,9.0,000907,   NaN,332.2,33.279900,-124.254890,0.17,NaN,NaN,15.463, NaN,NaN,NaN, NaN, NaN
20040407,001537,1296927,33.281200,-124.255690,NaN,15.454,32.800,40.917,521.13,0.0, NaN,14.135,14.101, NaN,24.177,   NaN,13.03,1021.16,72.31,12.83,3.6,1.7,12.1,14.0,339.1,335.8,7.3,9.1,NaN, NaN,NaN,333.9,NaN,1081296938,NaN,NaN,10.5,000937,   NaN,332.6,33.281050,-124.255640,-0.21,NaN,NaN,15.458, NaN,NaN,NaN, NaN, NaN
20040407,001607,1296956,33.282330,-124.256420,NaN,15.453,32.800,40.917,529.17,0.0, NaN,14.134,14.098, NaN,24.178,   NaN,13.00,1021.27,72.25,12.81,5.8,5.5,13.0,14.0,342.4,341.5,8.2,9.2,NaN, NaN,NaN,336.3,NaN,1081296968,NaN,NaN,7.1,000967,   NaN,331.4,33.282220,-124.256390,0.01,NaN,NaN,15.457, NaN,NaN,NaN, NaN, NaN
20040407,001637,1296987,33.283430,-124.257150,NaN,15.458,32.801,40.922,545.27,0.0, NaN,14.132,14.099, NaN,24.177,   NaN,13.06,1021.05,72.74,12.85,7.8,7.6,13.0,13.6,345.6,345.0,8.4,8.9,NaN, NaN,NaN,324.1,NaN,1081296998,NaN,NaN,10.4,000997,   NaN,333.1,33.283330,-124.257120,0.12,NaN,NaN,15.462, NaN,NaN,NaN, NaN, NaN
20040407,001706,1297016,33.284520,-124.257830,NaN,15.461,32.800,40.923,569.38,0.0, NaN,14.127,14.098, NaN,24.176,   NaN,12.98,1021.04,71.47,12.79,9.2,8.6,13.6,13.8,347.3,346.2,9.1,9.3,NaN, NaN,NaN,330.9,NaN,1081297027,NaN,NaN,9.8,001026,   NaN,332.4,33.284420,-124.257810,0.04,NaN,NaN,15.465, NaN,NaN,NaN, NaN, NaN
20040407,001737,1297047,33.285700,-124.258580,NaN,15.453,32.795,40.911,596.55,0.0, NaN,14.126,14.093, NaN,24.174,   NaN,12.96,1021.09,71.75,12.77,7.7,7.3,13.8,14.5,345.1,344.0,9.2,9.9,NaN, NaN,NaN,325.7,NaN,1081297058,NaN,NaN,8.4,001057,   NaN,333.2,33.285580,-124.258570,0.00,NaN,NaN,15.457, NaN,NaN,NaN, NaN, NaN
20040407,001807,1297077,33.286840,-124.259300,NaN,15.448,32.800,40.911,616.48,0.0, NaN,14.124,14.090, NaN,24.179,   NaN,13.05,1021.15,72.79,12.84,9.0,8.2,13.7,14.3,347.0,345.3,9.1,9.7,NaN, NaN,NaN,327.2,NaN,1081297088,NaN,NaN,10.9,001087,   NaN,332.6,33.286730,-124.259280,-0.20,NaN,NaN,15.452, NaN,NaN,NaN, NaN, NaN
20040407,001837,1297107,33.287970,-124.260040,NaN,15.444,32.800,40.908,632.73,0.0, NaN,14.123,14.090, NaN,24.180,   NaN,13.09,1021.12,72.89,12.87,12.1,9.8,13.7,14.0,351.8,348.1,9.1,9.4,NaN, NaN,NaN,340.9,NaN,1081297118,NaN,NaN,8.6,001117,   NaN,332.9,33.287870,-124.260010,-0.08,NaN,NaN,15.448, NaN,NaN,NaN, NaN, NaN
20040407,001907,1297137,33.289080,-124.260750,NaN,15.448,32.801,40.912,649.36,0.0, NaN,14.121,14.087, NaN,24.179,   NaN,13.07,1021.12,72.29,12.86,11.5,9.3,13.6,13.9,350.5,347.1,9.0,9.4,NaN, NaN,NaN,332.1,NaN,1081297148,NaN,NaN,7.0,001147,   NaN,333.0,33.288970,-124.260730,-0.16,NaN,NaN,15.452, NaN,NaN,NaN, NaN, NaN
20040407,001937,1297167,33.290150,-124.261420,NaN,15.456,32.800,40.919,665.25,0.0, NaN,14.119,14.084, NaN,24.177,   NaN,12.93,1021.15,70.73,12.74,8.4,7.1,13.1,13.8,346.2,344.0,8.6,9.3,NaN, NaN,NaN,332.6,NaN,1081297178,NaN,NaN,8.0,001177,   NaN,332.6,33.290050,-124.261400,0.19,NaN,NaN,15.460, NaN,NaN,NaN, NaN, NaN
20040407,002007,1297197,33.291260,-124.262140,NaN,15.458,32.800,40.921,673.17,0.0, NaN,14.117,14.081, NaN,24.177,   NaN,12.99,1021.19,71.49,12.78,6.7,5.6,12.6,13.6,344.1,341.8,8.2,9.1,NaN, NaN,NaN,329.3,NaN,1081297208,NaN,NaN,7.7,001207,   NaN,333.3,33.291160,-124.262120,-0.18,NaN,NaN,15.462, NaN,NaN,NaN, NaN, NaN
20040407,002037,1297227,33.292380,-124.262850,NaN,15.449,32.800,40.913,666.58,0.0, NaN,14.113,14.079, NaN,24.178,   NaN,13.08,1021.07,71.66,12.83,6.2,5.5,12.3,13.3,343.4,341.5,7.7,8.7,NaN, NaN,NaN,330.4,NaN,1081297238,NaN,NaN,10.4,001237,   NaN,333.3,33.292270,-124.262840,-0.01,NaN,NaN,15.453, NaN,NaN,NaN, NaN, NaN
20040407,002108,1297258,33.293500,-124.263580,NaN,15.446,32.800,40.910,650.93,0.0, NaN,14.112,14.079, NaN,24.179,   NaN,13.11,1021.10,71.84,12.87,8.3,7.8,12.6,13.0,346.8,345.7,8.0,8.4,NaN, NaN,NaN,339.7,NaN,1081297268,NaN,NaN,7.6,001267,   NaN,332.8,33.293390,-124.263560,0.14,NaN,NaN,15.450, NaN,NaN,NaN, NaN, NaN
20040407,002137,1297286,33.294640,-124.264300,NaN,15.442,32.801,40.907,635.35,0.0, NaN,14.110,14.077, NaN,24.181,   NaN,13.09,1021.12,71.63,12.86,9.7,8.4,12.5,12.7,349.0,346.6,7.9,8.1,NaN, NaN,NaN,325.9,NaN,1081297298,NaN,NaN,10.9,001297,   NaN,333.1,33.294530,-124.264280,-0.16,NaN,NaN,15.446, NaN,NaN,NaN, NaN, NaN
20040407,002208,1297318,33.295800,-124.265030,NaN,15.444,32.801,40.909,619.02,0.0, NaN,14.108,14.073, NaN,24.180,   NaN,13.11,1021.20,71.85,12.89,8.6,8.1,12.5,12.8,347.1,346.0,7.9,8.2,NaN, NaN,NaN,335.8,NaN,1081297328,NaN,NaN,8.9,001328,   NaN,332.7,33.295650,-124.264980,0.01,NaN,NaN,15.448, NaN,NaN,NaN, NaN, NaN
20040407,002238,1297348,33.296920,-124.265740,NaN,15.458,32.801,40.923,601.69,0.0, NaN,14.106,14.072, NaN,24.178,   NaN,13.05,1021.14,71.49,12.85,7.7,7.0,12.7,13.0,345.6,344.2,8.0,8.4,NaN, NaN,NaN,326.2,NaN,1081297358,NaN,NaN,10.3,001357,   NaN,333.2,33.296810,-124.265720,0.11,NaN,NaN,15.462, NaN,NaN,NaN, NaN, NaN
20040407,002307,1297377,33.298080,-124.266450,NaN,15.460,32.802,40.924,581.59,0.0, NaN,14.105,14.071, NaN,24.177,   NaN,13.09,1021.10,72.42,12.89,8.0,6.4,12.5,13.0,346.3,343.5,7.8,8.2,NaN, NaN,NaN,328.6,NaN,1081297388,NaN,NaN,9.8,001387,   NaN,332.6,33.297980,-124.266440,0.01,NaN,NaN,15.464, NaN,NaN,NaN, NaN, NaN
20040407,002337,1297407,33.299280,-124.267190,NaN,15.454,32.802,40.919,567.10,0.0, NaN,14.104,14.069, NaN,24.179,   NaN,13.03,1021.13,71.18,12.85,8.1,6.9,12.6,13.0,346.4,344.2,7.8,8.2,NaN, NaN,NaN,330.7,NaN,1081297418,NaN,NaN,9.4,001417,   NaN,331.9,33.299160,-124.267180,0.10,NaN,NaN,15.458, NaN,NaN,NaN, NaN, NaN
20040407,002407,1297437,33.300440,-124.267940,NaN,15.440,32.802,40.907,556.62,0.0, NaN,14.102,14.067, NaN,24.182,   NaN,13.06,1021.22,72.09,12.89,7.4,7.1,12.6,13.1,345.1,344.2,7.8,8.4,NaN, NaN,NaN,330.2,NaN,1081297448,NaN,NaN,9.2,001447,   NaN,333.2,33.300320,-124.267930,-0.07,NaN,NaN,15.444, NaN,NaN,NaN, NaN, NaN
20040407,002438,1297468,33.301590,-124.268680,NaN,15.436,32.802,40.903,552.58,0.0, NaN,14.099,14.066, NaN,24.183,   NaN,13.05,1021.13,71.80,12.86,8.4,7.8,12.7,13.1,346.6,345.4,7.9,8.4,NaN, NaN,NaN,343.4,NaN,1081297478,NaN,NaN,9.5,001477,   NaN,334.1,33.301460,-124.268660,-0.11,NaN,NaN,15.440, NaN,NaN,NaN, NaN, NaN
20040407,002508,1297498,33.302760,-124.269410,NaN,15.432,32.802,40.899,557.80,0.0, NaN,14.099,14.066, NaN,24.184,   NaN,13.03,1021.07,71.42,12.83,9.2,9.3,13.3,13.7,347.7,347.6,8.6,9.0,NaN, NaN,NaN,344.9,NaN,1081297508,NaN,NaN,7.9,001507,   NaN,333.1,33.302630,-124.269390,-0.04,NaN,NaN,15.436, NaN,NaN,NaN, NaN, NaN
20040407,002537,1297527,33.303940,-124.270080,NaN,15.424,32.803,40.893,569.81,0.0, NaN,14.099,14.064, NaN,24.186,   NaN,12.97,1021.16,70.97,12.79,7.3,7.5,13.5,14.5,346.5,346.4,8.7,9.8,NaN, NaN,NaN,346.8,NaN,1081297538,NaN,NaN,8.8,001537,   NaN,344.2,33.303800,-124.270070,-0.24,NaN,NaN,15.428, NaN,NaN,NaN, NaN, NaN
20040407,002607,1297557,33.305150,-124.270550,NaN,15.416,32.803,40.886,572.35,0.0, NaN,14.097,14.063, NaN,24.188,   NaN,12.92,1021.13,70.37,12.74,4.6,2.2,12.5,14.4,342.9,340.8,8.0,9.7,NaN, NaN,NaN,331.2,NaN,1081297568,NaN,NaN,9.0,001567,   NaN,329.7,33.305020,-124.270520,0.26,NaN,NaN,15.420, NaN,NaN,NaN, NaN, NaN
20040407,002638,1297588,33.306280,-124.271300,NaN,15.414,32.803,40.883,561.55,0.0, NaN,14.097,14.063, NaN,24.189,   NaN,12.96,1021.14,71.35,12.77,5.2,2.2,12.2,14.1,341.9,339.1,7.7,9.4,NaN, NaN,NaN,330.4,NaN,1081297598,NaN,NaN,9.7,001597,   NaN,332.7,33.306150,-124.271280,0.13,NaN,NaN,15.418, NaN,NaN,NaN, NaN, NaN
20040407,002707,1297617,33.307420,-124.272020,NaN,15.411,32.803,40.880,541.49,0.0, NaN,14.095,14.061, NaN,24.189,   NaN,12.92,1021.20,70.51,12.74,5.5,5.7,12.9,14.1,340.4,340.3,8.2,9.3,NaN, NaN,NaN,335.3,NaN,1081297628,NaN,NaN,7.2,001627,   NaN,333.1,33.307290,-124.271990,0.16,NaN,NaN,15.415, NaN,NaN,NaN, NaN, NaN
20040407,002738,1297648,33.308520,-124.272680,NaN,15.415,32.804,40.885,518.91,0.0, NaN,14.093,14.058, NaN,24.189,   NaN,12.90,1021.20,70.61,12.70,4.3,4.7,12.9,14.3,339.6,339.6,8.2,9.6,NaN, NaN,NaN,326.2,NaN,1081297658,NaN,NaN,8.7,001657,   NaN,332.1,33.308380,-124.272660,0.02,NaN,NaN,15.419, NaN,NaN,NaN, NaN, NaN
20040407,002807,1297677,33.309620,-124.273370,NaN,15.420,32.803,40.889,494.65,0.0, NaN,14.092,14.057, NaN,24.187,   NaN,12.90,1021.16,70.90,12.70,5.5,4.9,12.8,14.0,341.1,339.7,8.2,9.4,NaN, NaN,NaN,328.8,NaN,1081297688,NaN,NaN,9.6,001687,   NaN,332.2,33.309490,-124.273350,0.21,NaN,NaN,15.424, NaN,NaN,NaN, NaN, NaN
20040407,002837,1297707,33.310750,-124.274060,NaN,15.413,32.803,40.882,468.02,0.0, NaN,14.094,14.061, NaN,24.189,   NaN,12.96,1021.16,71.89,12.74,6.2,5.3,12.6,13.7,342.4,340.5,8.0,9.0,NaN, NaN,NaN,323.0,NaN,1081297718,NaN,NaN,8.4,001717,   NaN,331.9,33.310620,-124.274040,0.12,NaN,NaN,15.417, NaN,NaN,NaN, NaN, NaN
20040407,002908,1297738,33.311890,-124.274770,NaN,15.408,32.803,40.878,443.73,0.0, NaN,14.099,14.063, NaN,24.190,   NaN,12.94,1021.17,71.72,12.74,4.9,4.5,12.3,13.7,340.5,339.4,7.6,9.0,NaN, NaN,NaN,330.1,NaN,1081297748,NaN,NaN,9.8,001747,   NaN,332.6,33.311760,-124.274750,-0.04,NaN,NaN,15.412, NaN,NaN,NaN, NaN, NaN
20040407,002938,1297768,33.313060,-124.275480,NaN,15.408,32.803,40.878,428.26,0.0, NaN,14.092,14.056, NaN,24.190,   NaN,12.93,1021.14,71.91,12.74,2.9,3.6,12.2,13.9,337.3,338.1,7.5,9.2,NaN, NaN,NaN,344.1,NaN,1081297778,NaN,NaN,7.3,001778,   NaN,332.2,33.312900,-124.275430,0.10,NaN,NaN,15.412, NaN,NaN,NaN, NaN, NaN
20040407,003008,1297798,33.314140,-124.276160,NaN,15.408,32.799,40.874,422.08,0.0, NaN,14.078,14.043, NaN,24.187,   NaN,12.94,1021.13,71.86,12.73,3.1,3.8,12.3,13.8,337.9,338.6,7.6,9.2,NaN, NaN,NaN,331.7,NaN,1081297808,NaN,NaN,8.7,001807,   NaN,332.9,33.314010,-124.276140,0.04,NaN,NaN,15.412, NaN,NaN,NaN, NaN, NaN
20040407,003037,1297827,33.315270,-124.276870,NaN,15.413,32.798,40.877,420.49,0.0, NaN,14.062,14.027, NaN,24.185,   NaN,12.92,1021.21,71.87,12.71,4.1,3.8,12.3,13.8,339.3,338.4,7.7,9.1,NaN, NaN,NaN,344.3,NaN,1081297838,NaN,NaN,7.3,001837,   NaN,331.4,33.315130,-124.276850,-0.16,NaN,NaN,15.417, NaN,NaN,NaN, NaN, NaN
20040407,003107,1297857,33.316390,-124.277600,NaN,15.413,32.799,40.878,420.32,0.0, NaN,14.043,14.006, NaN,24.186,   NaN,13.00,1021.15,73.27,12.78,5.5,4.5,12.2,13.4,342.5,340.5,7.5,8.7,NaN, NaN,NaN,332.8,NaN,1081297868,NaN,NaN,9.6,001867,   NaN,333.6,33.316260,-124.277590,0.02,NaN,NaN,15.417, NaN,NaN,NaN, NaN, NaN
20040407,003137,1297887,33.317490,-124.278310,NaN,15.408,32.800,40.874,420.91,0.0, NaN,14.027,13.990, NaN,24.187,   NaN,13.04,1021.18,73.17,12.85,6.0,4.7,12.2,13.3,343.4,340.9,7.7,8.7,NaN, NaN,NaN,329.3,NaN,1081297898,NaN,NaN,8.9,001897,   NaN,333.2,33.317360,-124.278290,-0.06,NaN,NaN,15.412, NaN,NaN,NaN, NaN, NaN
20040407,003208,1297918,33.318580,-124.279050,NaN,15.405,32.801,40.873,422.37,0.0, NaN,14.018,13.984, NaN,24.189,   NaN,12.96,1021.23,72.41,12.76,5.3,4.9,12.4,13.6,341.8,340.6,7.8,9.0,NaN, NaN,NaN,338.2,NaN,1081297928,NaN,NaN,7.7,001927,   NaN,333.4,33.318450,-124.279030,-0.43,NaN,NaN,15.409, NaN,NaN,NaN, NaN, NaN
20040407,003237,1297947,33.319690,-124.279760,NaN,15.416,32.809,40.891,426.31,0.0, NaN,14.010,13.974, NaN,24.192,   NaN,13.01,1021.18,73.66,12.82,7.2,6.5,12.4,13.1,345.3,343.8,7.8,8.6,NaN, NaN,NaN,327.0,NaN,1081297958,NaN,NaN,9.5,001957,   NaN,332.9,33.319560,-124.279740,0.08,NaN,NaN,15.420, NaN,NaN,NaN, NaN, NaN
20040407,003308,1297978,33.320890,-124.280520,NaN,15.421,32.818,40.907,433.73,0.0, NaN,14.002,13.966, NaN,24.199,   NaN,13.06,1021.18,73.37,12.85,7.7,7.5,12.8,13.2,345.9,345.3,8.2,8.6,NaN, NaN,NaN,326.2,NaN,1081297989,NaN,NaN,10.4,001988,   NaN,332.9,33.320770,-124.280500,0.05,NaN,NaN,15.425, NaN,NaN,NaN, NaN, NaN
20040407,003338,1298008,33.322030,-124.281270,NaN,15.414,32.828,40.912,441.75,0.0, NaN,13.999,13.963, NaN,24.208,   NaN,12.92,1021.17,71.90,12.73,7.9,8.0,13.3,13.7,345.8,345.7,8.6,9.0,NaN, NaN,NaN,325.8,NaN,1081298019,NaN,NaN,12.1,002018,   NaN,332.8,33.321900,-124.281260,-0.07,NaN,NaN,15.418, NaN,NaN,NaN, NaN, NaN
20040407,003408,1298037,33.323120,-124.281990,NaN,15.408,32.833,40.911,446.00,0.0, NaN,13.995,13.961, NaN,24.213,   NaN,12.99,1021.09,73.11,12.78,9.6,9.4,13.4,14.0,348.3,347.7,8.9,9.4,NaN, NaN,NaN,328.8,NaN,1081298049,NaN,NaN,9.8,002048,   NaN,332.4,33.322960,-124.281960,-0.27,NaN,NaN,15.412, NaN,NaN,NaN, NaN, NaN
20040407,003438,1298068,33.324250,-124.282740,NaN,15.391,32.837,40.900,448.40,0.0, NaN,13.994,13.958, NaN,24.219,   NaN,13.00,1021.20,72.96,12.80,10.7,9.5,13.6,14.0,350.1,348.0,9.1,9.5,NaN, NaN,NaN,329.4,NaN,1081298079,NaN,NaN,7.4,002078,   NaN,332.6,33.324110,-124.282720,0.07,NaN,NaN,15.395, NaN,NaN,NaN, NaN, NaN
20040407,003508,1298098,33.325350,-124.283470,NaN,15.373,32.839,40.885,454.22,0.0, NaN,13.992,13.954, NaN,24.225,   NaN,13.03,1021.17,73.00,12.82,7.6,7.3,13.3,14.1,345.7,344.8,8.7,9.5,NaN, NaN,NaN,331.3,NaN,1081298109,NaN,NaN,10.9,002108,   NaN,333.1,33.325180,-124.283420,-0.02,NaN,NaN,15.377, NaN,NaN,NaN, NaN, NaN
20040407,003538,1298128,33.326430,-124.284190,NaN,15.366,32.840,40.881,465.61,0.0, NaN,13.989,13.953, NaN,24.228,   NaN,13.00,1021.21,72.58,12.78,7.7,7.6,13.0,13.8,345.9,345.3,8.5,9.3,NaN, NaN,NaN,333.7,NaN,1081298139,NaN,NaN,7.6,002138,   NaN,332.4,33.326290,-124.284170,-0.08,NaN,NaN,15.370, NaN,NaN,NaN, NaN, NaN
20040407,003607,1298157,33.327470,-124.284890,NaN,15.356,32.842,40.872,483.12,0.0, NaN,13.987,13.951, NaN,24.231,   NaN,13.00,1021.21,72.66,12.78,8.8,8.5,13.0,13.3,347.8,346.9,8.5,8.9,NaN, NaN,NaN,328.9,NaN,1081298168,NaN,NaN,8.9,002167,   NaN,332.8,33.327340,-124.284870,0.01,NaN,NaN,15.360, NaN,NaN,NaN, NaN, NaN
20040407,003638,1298188,33.328630,-124.285660,NaN,15.343,32.843,40.862,506.54,0.0, NaN,13.987,13.951, NaN,24.235,   NaN,12.98,1021.18,72.45,12.79,8.2,7.7,12.8,13.3,346.9,345.8,8.2,8.7,NaN, NaN,NaN,337.8,NaN,1081298199,NaN,NaN,9.6,002198,   NaN,333.3,33.328510,-124.285640,-0.04,NaN,NaN,15.347, NaN,NaN,NaN, NaN, NaN
20040407,003708,1298217,33.329790,-124.286430,NaN,15.337,32.844,40.857,511.55,0.0, NaN,13.985,13.947, NaN,24.237,   NaN,13.10,1021.24,73.96,12.86,6.3,5.8,12.9,13.7,343.8,342.7,8.2,9.0,NaN, NaN,NaN,328.3,NaN,1081298229,NaN,NaN,7.9,002228,   NaN,332.8,33.329650,-124.286400,-0.09,NaN,NaN,15.341, NaN,NaN,NaN, NaN, NaN